[[{"header":{"parameterUnit":"m.s-1","parameterCategory":1,"la1":30.2991,"la2":30.254,"lo1":-89.0895,"lo2":-89.0444,"dy":0.0017,"dx":0.0017,"nx":28,"ny":28,"refTime":"2025-04-12T21:00:00:Z","depth":0,"parameterNumber":2,"parameterNumberName":"U-component_of_WINDS"},"data":[0,0,0,0,0,0,0,0,0,0,0,0,0,0,0,0,0,0,0,0,0,0,0,0,0,0,0,0,0,0,0,0,0,0,0,0,0,0,0,0,0,0,0,0,0,0,0,0,0,0,0,0,0,0,0,0,0,0,2.4977,2.4978,0,2.5054,2.5055,2.5056,2.5035,2.5033,2.5032,2.503,2.5108,2.5111,2.5115,0,0,0,0,0,0,0,0,0,0,0,0,0,2.4809,2.4812,2.4977,2.4978,2.4979,2.5054,2.5055,2.5056,2.5035,2.5033,2.5031,2.503,2.5107,2.5111,2.5115,0,0,0,0,0,0,0,0,0,0,0,0,0,2.4883,2.4813,2.4977,2.4978,2.4979,2.5054,2.5055,2.5056,2.5036,2.5033,2.5031,2.5029,2.5105,2.511,2.5116,2.5194,0,0,2.5132,2.5134,0,0,0,0,0,0,0,0,2.4879,2.4889,2.4977,2.4978,2.4979,2.5032,2.5024,2.5102,2.5036,2.5014,2.503,2.5028,2.5085,2.5091,2.5111,2.5198,2.5201,2.5132,2.5135,2.5138,2.5139,0,0,0,0,0,0,0,2.4874,2.4886,2.5007,2.4978,2.4979,2.4973,2.4981,2.5039,2.5061,2.5016,2.5014,2.5024,2.5085,2.5106,2.5113,2.5202,2.5132,2.5137,2.514,2.5142,2.5352,2.5354,0,0,0,0,0,0,2.4868,2.4882,2.5005,2.501,2.4922,2.4978,2.4987,2.5018,2.5061,2.5065,2.5026,2.5022,2.5098,2.5106,2.5115,2.5206,2.5138,2.5143,2.5146,2.535,2.5352,2.5355,0,0,0,0,0,0,2.4865,2.4879,2.5002,2.4945,2.4961,2.4983,2.5018,2.502,2.5041,2.5068,2.5072,2.5043,2.5097,2.5108,2.5174,2.5208,2.5145,2.515,2.5347,2.535,2.5354,2.5391,0,0,0,0,0,0,2.486,2.4878,2.491,2.4946,2.4964,2.506,2.502,2.5023,2.5051,2.5047,2.5086,2.509,2.5096,2.5166,2.5179,2.5215,2.5154,2.5344,2.5348,2.5353,2.5386,2.5395,2.5402,0,0,0,0,0,2.4854,2.4918,2.4911,2.4926,2.5003,2.5063,2.5072,2.5078,2.5054,2.5084,2.51,2.5088,2.5203,2.5173,2.5187,2.5225,2.5341,2.5347,2.5352,2.5383,2.5393,2.5402,0,0,0,0,0,0,2.4886,2.4923,2.4916,2.4994,2.5025,2.5059,2.5098,2.509,2.5129,2.5124,2.5129,2.5138,2.5204,2.5222,2.5187,2.5301,2.5268,2.5277,2.5286,2.5297,2.5305,2.5298,2.5158,0,0,0,0,0,2.4901,2.4947,2.4977,2.5043,2.5059,2.5076,2.5102,2.5103,2.5135,2.5148,2.517,2.5201,2.5243,2.5272,2.5313,2.5389,2.5395,2.5422,2.543,2.5437,2.5443,2.548,2.5491,2.5373,2.5373,2.5373,0,0,2.4935,2.4961,2.499,2.505,2.5074,2.5119,2.5087,2.5137,2.517,2.5156,2.5218,2.5235,2.527,2.534,2.5372,2.5357,2.5477,2.5444,2.5449,2.5452,2.5487,2.5498,2.5508,2.5377,2.5376,2.5375,0,0,2.5018,2.5044,2.5099,2.5124,2.516,2.517,2.5184,2.5218,2.5228,2.5291,2.528,2.5318,2.5393,2.5417,2.5439,2.5527,2.5515,2.554,2.5581,2.5617,2.5627,2.5635,2.5662,2.5673,2.5547,2.5547,2.5547,0,2.5055,2.5124,2.5129,2.5179,2.5204,2.5192,2.5246,2.527,2.5318,2.5335,2.5317,2.5407,2.543,2.5503,2.5524,2.5544,2.5556,2.5535,2.5625,2.5633,2.5641,2.5667,2.5678,2.555,2.5549,2.5549,2.5549,0,2.5165,2.5212,2.5252,2.5297,2.5327,2.5379,2.539,2.5419,2.5417,2.5429,2.549,2.5517,2.5561,2.5579,2.5579,2.5651,2.564,2.5624,2.5591,2.5655,2.5679,2.5689,2.5553,2.5552,2.5551,2.5551,0,0,2.5271,2.5316,2.533,2.5348,2.5386,2.5422,2.5472,2.5515,2.5537,2.5571,2.561,2.5672,2.5656,2.568,2.5682,2.5714,2.5777,2.5694,2.5694,2.5705,2.5853,2.5863,2.5874,2.577,2.5772,2.5774,2.5849,0,2.5354,2.5442,2.5446,2.5525,2.5567,2.5555,2.5598,2.5624,2.5636,2.5671,2.5684,2.5725,2.5704,2.5717,2.5749,2.5763,2.5806,2.5758,2.5805,2.5806,2.5793,2.5888,2.5899,2.5969,2.5859,2.5861,2.5862,0,2.5464,2.5498,2.5581,2.5608,2.5626,2.5665,2.5701,2.5737,2.5765,2.5771,2.5797,2.5793,2.5841,2.5808,2.5873,2.584,2.5859,2.5869,2.5871,2.5874,2.5836,2.5889,2.5992,2.6,2.5878,2.5876,2.5875,0,2.5527,2.5595,2.5651,2.5668,2.5703,2.573,2.5746,2.5772,2.5796,2.5828,2.5843,2.5881,2.5901,2.5929,2.5934,2.5911,2.5998,2.5966,2.6001,2.6001,2.6018,2.6017,2.6121,2.6036,2.6036,2.6036,2.6036,0,2.5618,2.5668,2.568,2.5715,2.5769,2.5773,2.5826,2.584,2.5863,2.5899,2.5892,2.5925,2.5931,2.5965,2.597,2.602,2.6031,2.6034,2.6034,2.6033,2.6032,2.6044,2.6038,2.6039,2.6038,2.6037,2.6037,0,2.5698,2.5708,2.5769,2.5796,2.5804,2.5842,2.5865,2.5897,2.5907,2.5951,2.5962,2.5977,2.6016,2.6024,2.6072,2.6075,2.6133,2.613,2.6123,2.6122,2.6155,2.615,2.6268,2.6282,2.6191,2.6192,2.6193,0,2.5754,2.5792,2.5822,2.5845,2.5861,2.5899,2.5923,2.5927,2.5951,2.5985,2.6012,2.605,2.6081,2.6144,2.6158,2.6193,2.6188,2.6227,2.6194,2.619,2.6184,2.6181,2.6183,2.6233,2.6234,2.6235,2.6235,0,2.5851,2.5853,2.5887,2.5922,2.595,2.5978,2.6004,2.6023,2.6031,2.6058,2.6098,2.6121,2.6168,2.6204,2.6239,2.6253,2.6244,2.6246,2.6255,2.6253,2.6246,2.6246,2.6137,2.6243,2.6242,2.6242,2.6241,2.6241,2.5918,2.5949,2.5974,2.6011,2.6031,2.6055,2.6085,2.6097,2.613,2.6168,2.6169,2.621,2.6235,2.6279,2.6296,2.6328,2.6315,2.633,2.6333,2.6335,2.6336,2.6243,2.6334,2.6334,2.6334,2.6334,2.6334,0,2.6011,2.6025,2.606,2.6095,2.6124,2.6113,2.6141,2.6165,2.6202,2.6225,2.6255,2.6298,2.6333,2.6349,2.6382,2.6404,2.6401,2.6413,2.641,2.6412,2.6348,2.6334,2.6415,2.6415,2.6415,2.6415,2.6415,2.6415,2.6062,2.6113,2.6117,2.6177,2.6191,2.6232,2.6248,2.6269,2.6287,2.6335,2.6364,2.6374,2.6393,2.6427,2.6458,2.6461,2.6473,2.6486,2.6487,2.6426,2.6417,2.6409,2.6397,2.6489,2.6489,2.6548,2.6549,2.6549]},{"header":{"parameterUnit":"m.s-1","parameterCategory":1,"la1":30.2991,"la2":30.254,"lo1":-89.0895,"lo2":-89.0444,"dy":0.0017,"dx":0.0017,"nx":28,"ny":28,"refTime":"2025-04-12T21:00:00:Z","depth":0,"parameterNumber":3,"parameterNumberName":"V-component_of_WINDS"},"data":[0,0,0,0,0,0,0,0,0,0,0,0,0,0,0,0,0,0,0,0,0,0,0,0,0,0,0,0,0,0,0,0,0,0,0,0,0,0,0,0,0,0,0,0,0,0,0,0,0,0,0,0,0,0,0,0,0,0,4.1214,4.1214,0,4.1262,4.1263,4.1263,4.1209,4.1207,4.1205,4.1203,4.1251,4.1254,4.1257,0,0,0,0,0,0,0,0,0,0,0,0,0,4.107,4.1073,4.1214,4.1214,4.1215,4.1262,4.1263,4.1263,4.1209,4.1206,4.1204,4.1202,4.1249,4.1253,4.1257,0,0,0,0,0,0,0,0,0,0,0,0,0,4.1127,4.1074,4.1213,4.1193,4.1192,4.1262,4.1263,4.1263,4.121,4.1206,4.1203,4.12,4.1248,4.1253,4.1258,4.1349,0,0,4.1272,4.1274,0,0,0,0,0,0,0,0,4.1124,4.1132,4.1196,4.1195,4.1194,4.1226,4.1229,4.1292,4.121,4.1203,4.1203,4.1199,4.1245,4.125,4.1265,4.1351,4.1353,4.1273,4.1276,4.1278,4.1279,0,0,0,0,0,0,0,4.112,4.113,4.1233,4.1197,4.1195,4.1181,4.1185,4.1241,4.1241,4.1203,4.1199,4.1206,4.1244,4.1261,4.1266,4.1354,4.1273,4.1277,4.128,4.1282,4.1512,4.1516,0,0,0,0,0,0,4.1118,4.1127,4.1231,4.1234,4.115,4.1186,4.1191,4.1219,4.124,4.124,4.1209,4.1203,4.1254,4.1261,4.1268,4.1373,4.1278,4.1282,4.1285,4.1509,4.1513,4.1517,0,0,0,0,0,0,4.1116,4.1128,4.1229,4.1179,4.1191,4.1191,4.1223,4.1221,4.1239,4.1244,4.1243,4.1227,4.1252,4.1261,4.1328,4.1374,4.1284,4.1289,4.1505,4.151,4.1515,4.1586,0,0,0,0,0,0,4.1112,4.1128,4.1164,4.1181,4.1194,4.1291,4.1226,4.1225,4.1247,4.1241,4.1261,4.1261,4.125,4.1321,4.1333,4.1379,4.1292,4.1501,4.1508,4.1513,4.158,4.1593,4.1604,0,0,0,0,0,4.1107,4.1182,4.1166,4.1179,4.1239,4.1293,4.1301,4.1288,4.1251,4.1286,4.1289,4.126,4.1367,4.1329,4.1341,4.1389,4.1498,4.1506,4.1513,4.1574,4.159,4.1604,0,0,0,0,0,0,4.1171,4.1184,4.1166,4.125,4.1271,4.1284,4.1328,4.1306,4.1337,4.133,4.1312,4.1316,4.1387,4.1395,4.1352,4.1477,4.1427,4.1437,4.1469,4.1484,4.1496,4.1492,4.1296,0,0,0,0,0,4.1195,4.1239,4.1248,4.1321,4.1332,4.1328,4.1352,4.1339,4.136,4.1369,4.1376,4.1397,4.1435,4.146,4.1496,4.1581,4.1583,4.162,4.1632,4.1642,4.1651,4.1693,4.1708,4.1541,4.1541,4.1541,0,0,4.1245,4.1257,4.1286,4.1334,4.1349,4.1392,4.1336,4.1386,4.1418,4.1376,4.1439,4.1446,4.1467,4.1543,4.1577,4.1552,4.1697,4.1651,4.1659,4.1663,4.1702,4.1718,4.1732,4.1546,4.1545,4.1544,0,0,4.1358,4.1373,4.1433,4.1449,4.1472,4.1468,4.1483,4.1499,4.1501,4.1565,4.1533,4.157,4.1637,4.1652,4.1669,4.1784,4.1757,4.1796,4.1859,4.1901,4.1914,4.1925,4.1963,4.1978,4.1805,4.1805,4.1805,0,4.1417,4.1483,4.1467,4.1518,4.1539,4.1502,4.1562,4.1578,4.1611,4.1625,4.1597,4.1677,4.1689,4.1766,4.1794,4.181,4.1823,4.1793,4.1913,4.1925,4.1935,4.1971,4.1986,4.1809,4.1809,4.1808,4.1808,0,4.1552,4.1598,4.1644,4.1676,4.1702,4.1757,4.1748,4.1776,4.176,4.1759,4.1822,4.1835,4.1871,4.1889,4.1875,4.1963,4.1946,4.1916,4.1865,4.1956,4.1989,4.2003,4.1815,4.1814,4.1813,4.1812,0,0,4.1708,4.1729,4.1746,4.1758,4.1779,4.1814,4.1866,4.1901,4.1923,4.1947,4.1988,4.2044,4.2015,4.2034,4.2021,4.2058,4.2144,4.2022,4.2022,4.2042,4.2238,4.2259,4.2276,4.2127,4.213,4.2132,4.2235,0,4.1819,4.191,4.1896,4.1983,4.2023,4.1987,4.2032,4.2049,4.2049,4.2082,4.2081,4.212,4.2081,4.2091,4.2126,4.2126,4.2183,4.2119,4.2163,4.2165,4.2157,4.2294,4.2317,4.2414,4.2249,4.2251,4.2252,0,4.1961,4.1988,4.2079,4.209,4.2106,4.2147,4.2176,4.2209,4.2226,4.2223,4.2243,4.2222,4.2272,4.2221,4.2288,4.2245,4.2262,4.2265,4.2268,4.227,4.2213,4.2297,4.2445,4.2459,4.2273,4.2272,4.227,0,4.2062,4.2121,4.2182,4.2194,4.221,4.2239,4.2246,4.226,4.2281,4.2306,4.2318,4.2349,4.2366,4.2389,4.2377,4.2341,4.2445,4.2394,4.2442,4.2442,4.2464,4.2463,4.2614,4.2479,4.2479,4.2478,4.2478,0,4.2186,4.2242,4.2227,4.2265,4.2325,4.2308,4.2368,4.2371,4.2384,4.2419,4.2391,4.2425,4.2408,4.244,4.2431,4.2486,4.2494,4.2492,4.2488,4.2493,4.2493,4.2503,4.2495,4.2482,4.2481,4.2481,4.248,0,4.2309,4.2301,4.2365,4.2373,4.2377,4.2421,4.2427,4.2461,4.2458,4.2503,4.2513,4.2508,4.2544,4.2534,4.2574,4.2568,4.2636,4.2625,4.263,4.2627,4.2675,4.2669,4.2837,4.2856,4.271,4.2712,4.2713,0,4.2388,4.2429,4.2442,4.2463,4.2473,4.2509,4.2529,4.2513,4.2535,4.2555,4.2586,4.262,4.2646,4.2705,4.2704,4.2733,4.2721,4.2778,4.2726,4.2728,4.2719,4.2716,4.2718,4.2788,4.2789,4.2791,4.2792,0,4.2527,4.252,4.2551,4.2579,4.2604,4.2625,4.2644,4.2664,4.2648,4.2674,4.271,4.273,4.2769,4.2802,4.2828,4.2835,4.281,4.2808,4.2821,4.2825,4.2825,4.2823,4.2656,4.2804,4.2803,4.2802,4.2802,4.2801,4.2629,4.2663,4.2676,4.2709,4.2721,4.2739,4.277,4.277,4.28,4.283,4.2819,4.2859,4.2872,4.2905,4.2915,4.2945,4.2923,4.2942,4.2946,4.2951,4.2955,4.2822,4.295,4.295,4.295,4.2949,4.2949,0,4.2764,4.277,4.2801,4.2827,4.2853,4.2828,4.2846,4.2869,4.2906,4.292,4.2945,4.2985,4.3016,4.3017,4.3045,4.3069,4.3058,4.3077,4.3074,4.3075,4.2974,4.296,4.3085,4.3085,4.3085,4.3085,4.3085,4.3085,4.2838,4.2893,4.2887,4.2947,4.2953,4.2992,4.3004,4.3019,4.303,4.3076,4.3101,4.3101,4.3109,4.3137,4.3164,4.3163,4.3174,4.3196,4.3191,4.3097,4.3083,4.307,4.3056,4.3199,4.32,4.3289,4.329,4.329]}]]